Voltar ao catálogo

DELTA 1 DEB

AtivoSSO
NORAD 10708·DEBRIS·🇺🇸 United States

Lançado Jul 29, 1976 de Vandenberg Space Force Base

Loading…

Próximas Passagens (próximas 24 horas)

TLE

AtualizadoSource: Space-Track

Época: Sep 13, 2026, 22:13 UTC

1 10708U 76077AD  26256.92580135  .00000237  00000-0  14607-2 0  9999
2 10708 101.2115 260.0214 0162024 181.0841 244.6049 12.63488971299055

Acompanhe DELTA 1 DEB em tempo real com AllMySat

Download on the App Store